When you browse on this site, cookies collect data to enhance your experience and personalize the content and advertising you see.
Visit our Privacy Policy to learn more. By continuing to use the site, you agree to this use of cookies and data.
  • In United Kingdom
  • List of Countries
  • For 7 days
  • Water Temperature
  • Satellite Maps
  • Weather Map
  • Weather Widgets
  • user-avatar
    Login

    Hourly Weather Mansa Konko

    Today, 22 April, Monday

    Time Temperature Precipitation Wind Pressure Humidity
    00:00 +29°C° 0 mm 4 mps 757 mmHg 33%
    01:00 +28°C° 0 mm 4 mps 757 mmHg 35%
    02:00 +27°C° 0 mm 3 mps 756 mmHg 37%
    03:00 +26°C° 0 mm 3 mps 756 mmHg 41%
    04:00 +25°C° 0 mm 3 mps 756 mmHg 44%
    05:00 +25°C° 0 mm 3 mps 756 mmHg 47%
    06:00 +26°C° 0 mm 3 mps 757 mmHg 45%
    07:00 +27°C° 0 mm 3 mps 757 mmHg 42%
    08:00 +27°C° 0 mm 3 mps 758 mmHg 40%
    09:00 +31°C° 0 mm 3 mps 757 mmHg 32%
    10:00 +35°C° 0 mm 3 mps 757 mmHg 25%
    11:00 +38°C° 0 mm 3 mps 757 mmHg 17%
    12:00 +39°C° 0 mm 3 mps 756 mmHg 15%
    13:00 +42°C° 0 mm 3 mps 755 mmHg 14%
    14:00 +43°C° 0 mm 3 mps 755 mmHg 12%
    15:00 +43°C° 0 mm 4 mps 754 mmHg 13%
    16:00 +43°C° 0 mm 4 mps 754 mmHg 13%
    17:00 +43°C° 0 mm 5 mps 754 mmHg 14%
    18:00 +41°C° 0 mm 5 mps 754 mmHg 16%
    19:00 +39°C° 0 mm 5 mps 755 mmHg 18%
    20:00 +36°C° 0 mm 5 mps 756 mmHg 21%
    21:00 +34°C° 0 mm 5 mps 756 mmHg 23%
    22:00 +32°C° 0 mm 4 mps 756 mmHg 26%
    23:00 +30°C° 0 mm 4 mps 757 mmHg 29%

    Tomorrow, 23 April, Tuesday

    Time Temperature Precipitation Wind Pressure Humidity
    00:00 +29°C° 0 mm 4 mps 756 mmHg 32%
    01:00 +27°C° 0 mm 4 mps 756 mmHg 35%
    02:00 +26°C° 0 mm 3 mps 756 mmHg 38%
    03:00 +26°C° 0 mm 3 mps 756 mmHg 42%
    04:00 +25°C° 0 mm 3 mps 756 mmHg 46%
    05:00 +24°C° 0 mm 3 mps 756 mmHg 50%
    06:00 +25°C° 0 mm 3 mps 756 mmHg 50%
    07:00 +26°C° 0 mm 4 mps 757 mmHg 49%
    08:00 +26°C° 0 mm 4 mps 757 mmHg 48%
    09:00 +29°C° 0 mm 3 mps 757 mmHg 39%
    10:00 +33°C° 0 mm 3 mps 757 mmHg 29%
    11:00 +36°C° 0 mm 3 mps 757 mmHg 19%
    12:00 +38°C° 0 mm 3 mps 756 mmHg 17%
    13:00 +40°C° 0 mm 3 mps 755 mmHg 15%
    14:00 +42°C° 0 mm 3 mps 754 mmHg 13%
    15:00 +42°C° 0 mm 3 mps 754 mmHg 13%
    16:00 +42°C° 0 mm 4 mps 754 mmHg 14%
    17:00 +42°C° 0 mm 4 mps 753 mmHg 14%
    18:00 +38°C° 0 mm 4 mps 754 mmHg 19%
    19:00 +36°C° 0 mm 4 mps 755 mmHg 25%
    20:00 +33°C° 0 mm 4 mps 755 mmHg 30%
    21:00 +32°C° 0 mm 4 mps 756 mmHg 31%
    22:00 +30°C° 0 mm 4 mps 756 mmHg 33%
    23:00 +29°C° 0 mm 4 mps 756 mmHg 34%

    Day after tomorrow, 24 April, Wednesday

    Time Temperature Precipitation Wind Pressure Humidity
    00:00 +28°C° 0 mm 4 mps 756 mmHg 36%
    01:00 +27°C° 0 mm 3 mps 756 mmHg 39%
    02:00 +26°C° 0 mm 3 mps 755 mmHg 41%
    03:00 +26°C° 0 mm 3 mps 756 mmHg 44%
    04:00 +25°C° 0 mm 3 mps 756 mmHg 46%
    05:00 +24°C° 0 mm 3 mps 756 mmHg 49%
    06:00 +25°C° 0 mm 3 mps 757 mmHg 46%
    07:00 +27°C° 0 mm 2 mps 757 mmHg 43%
    08:00 +28°C° 0 mm 2 mps 758 mmHg 40%
    09:00 +31°C° 0 mm 2 mps 758 mmHg 32%
    10:00 +34°C° 0 mm 1 mps 758 mmHg 24%
    11:00 +37°C° 0 mm 1 mps 757 mmHg 16%
    12:00 +40°C° 0 mm 1 mps 757 mmHg 15%
    13:00 +41°C° 0 mm 2 mps 756 mmHg 14%
    14:00 +42°C° 0 mm 2 mps 755 mmHg 13%
    15:00 +43°C° 0 mm 3 mps 755 mmHg 13%
    16:00 +43°C° 0 mm 3 mps 755 mmHg 13%
    17:00 +43°C° 0 mm 3 mps 754 mmHg 14%
    18:00 +40°C° 0 mm 4 mps 755 mmHg 18%
    19:00 +37°C° 0 mm 4 mps 756 mmHg 23%
    20:00 +34°C° 0 mm 4 mps 757 mmHg 28%
    21:00 +33°C° 0 mm 4 mps 757 mmHg 31%
    22:00 +32°C° 0 mm 4 mps 757 mmHg 34%
    23:00 +30°C° 0 mm 4 mps 758 mmHg 36%

    25 April, Thursday

    Time Temperature Precipitation Wind Pressure Humidity
    00:00 +29°C° 0 mm 4 mps 757 mmHg 38%
    01:00 +28°C° 0 mm 3 mps 757 mmHg 39%
    02:00 +28°C° 0 mm 3 mps 756 mmHg 41%
    03:00 +27°C° 0 mm 3 mps 756 mmHg 41%
    04:00 +27°C° 0 mm 3 mps 756 mmHg 41%
    05:00 +26°C° 0 mm 2 mps 757 mmHg 42%
    06:00 +27°C° 0 mm 2 mps 757 mmHg 38%
    07:00 +28°C° 0 mm 2 mps 758 mmHg 35%
    08:00 +30°C° 0 mm 2 mps 758 mmHg 31%
    09:00 +32°C° 0 mm 2 mps 758 mmHg 26%
    10:00 +36°C° 0 mm 2 mps 758 mmHg 20%
    11:00 +39°C° 0 mm 2 mps 758 mmHg 14%
    12:00 +41°C° 0 mm 2 mps 757 mmHg 14%
    13:00 +42°C° 0 mm 2 mps 756 mmHg 13%
    14:00 +43°C° 0 mm 2 mps 755 mmHg 12%
    15:00 +44°C° 0 mm 3 mps 755 mmHg 13%
    16:00 +43°C° 0 mm 3 mps 755 mmHg 13%
    17:00 +43°C° 0 mm 4 mps 755 mmHg 13%
    18:00 +40°C° 0 mm 4 mps 755 mmHg 17%
    19:00 +37°C° 0 mm 5 mps 756 mmHg 21%
    20:00 +34°C° 0 mm 5 mps 757 mmHg 25%
    21:00 +33°C° 0 mm 5 mps 757 mmHg 27%
    22:00 +32°C° 0 mm 4 mps 757 mmHg 30%
    23:00 +30°C° 0 mm 4 mps 758 mmHg 33%

    26 April, Friday

    Time Temperature Precipitation Wind Pressure Humidity
    00:00 +29°C° 0 mm 4 mps 757 mmHg 33%
    01:00 +29°C° 0 mm 4 mps 757 mmHg 34%
    02:00 +28°C° 0 mm 3 mps 756 mmHg 34%
    03:00 +28°C° 0 mm 3 mps 756 mmHg 35%
    04:00 +27°C° 0 mm 3 mps 757 mmHg 36%
    05:00 +27°C° 0 mm 3 mps 757 mmHg 37%
    06:00 +28°C° 0 mm 3 mps 757 mmHg 35%
    07:00 +29°C° 0 mm 3 mps 758 mmHg 33%
    08:00 +30°C° 0 mm 2 mps 758 mmHg 31%
    09:00 +32°C° 0 mm 2 mps 758 mmHg 26%
    10:00 +36°C° 0 mm 2 mps 758 mmHg 21%
    11:00 +39°C° 0 mm 2 mps 757 mmHg 16%
    12:00 +40°C° 0 mm 2 mps 756 mmHg 15%
    13:00 +43°C° 0 mm 3 mps 755 mmHg 13%
    14:00 +44°C° 0 mm 3 mps 754 mmHg 12%
    15:00 +44°C° 0 mm 3 mps 754 mmHg 12%
    16:00 +44°C° 0 mm 3 mps 754 mmHg 12%
    17:00 +44°C° 0 mm 3 mps 754 mmHg 12%
    18:00 +42°C° 0 mm 4 mps 754 mmHg 16%
    19:00 +39°C° 0 mm 5 mps 755 mmHg 20%
    20:00 +35°C° 0 mm 6 mps 756 mmHg 25%
    21:00 +34°C° 0 mm 5 mps 756 mmHg 26%
    22:00 +33°C° 0 mm 5 mps 756 mmHg 27%
    23:00 +32°C° 0 mm 4 mps 756 mmHg 28%

    27 April, Saturday

    Time Temperature Precipitation Wind Pressure Humidity
    00:00 +30°C° 0 mm 4 mps 756 mmHg 29%
    01:00 +30°C° 0 mm 4 mps 755 mmHg 31%
    02:00 +29°C° 0 mm 3 mps 755 mmHg 32%
    03:00 +28°C° 0 mm 3 mps 755 mmHg 34%
    04:00 +28°C° 0 mm 3 mps 755 mmHg 35%
    05:00 +27°C° 0 mm 3 mps 756 mmHg 37%
    06:00 +28°C° 0 mm 3 mps 756 mmHg 35%
    07:00 +29°C° 0 mm 2 mps 757 mmHg 32%
    08:00 +30°C° 0 mm 2 mps 757 mmHg 30%
    09:00 +34°C° 0 mm 2 mps 757 mmHg 25%
    10:00 +37°C° 0 mm 2 mps 757 mmHg 20%
    11:00 +39°C° 0 mm 2 mps 756 mmHg 15%
    12:00 +41°C° 0 mm 2 mps 756 mmHg 14%
    13:00 +43°C° 0 mm 2 mps 755 mmHg 13%
    14:00 +45°C° 0 mm 2 mps 754 mmHg 11%
    15:00 +45°C° 0 mm 3 mps 754 mmHg 11%
    16:00 +45°C° 0 mm 3 mps 754 mmHg 11%
    17:00 +45°C° 0 mm 3 mps 753 mmHg 11%
    18:00 +42°C° 0 mm 4 mps 754 mmHg 15%
    19:00 +40°C° 0 mm 4 mps 755 mmHg 19%
    20:00 +36°C° 0 mm 5 mps 755 mmHg 23%
    21:00 +35°C° 0 mm 5 mps 756 mmHg 24%
    22:00 +34°C° 0 mm 4 mps 756 mmHg 25%
    23:00 +33°C° 0 mm 4 mps 756 mmHg 26%
    Show more